Weather in Krasnoselskoye

Russia / Republic of Crimea     45°24′54″N   32°40′31″E
temp.,
°C
wind,
m/s
gust,
m/s
humid.,
%
clouds,
%
prec.,
mm/h
press.,
hPa
HPBL,
m
27 february, sat
sat2700:00+8sw712880 0.0 1022229
03:00+8sw711890 0.0 1021222
06:00+7sw610900 0.0 1019189
09:00+8sw610880 0.0 1019237
12:00+9wsw57840 0.0 1018258
15:00+8nw55820 0.0 1018222
18:00+7n8118575 0.0 1018420
21:00+6nnw9118387 0.0 1020650
28 february, sun
sun2800:00+5nnw81075100 0.0 10201001
03:00+5nnw81085100 0.1 1021595
06:00+4nnw7986100 0.2 1021756
09:00+4nnw91088100 0.4 1022749
12:00+4nnw797497 0.1 10231017
15:00+4nnw898195 0.4 1023840
18:00+4nw897592 0.1 1023897
21:00+4nw677189 0.2 1024902
1 march, mon
mon100:00+3nw6772100 0.1 1024825
03:00+3nw4671100 0.1 1024670
06:00+4nw4569100 0.0 1024661
09:00+4n337195 0.1 1025619
12:00+5ne326696 0.0 1025723
15:00+5n446872 0.0 1026543
18:00+4n56706 0.0 1027573
21:00+4ne467412 0.0 1029541
2 march, tue
tue200:00+4nne566767 0.0 1030778
03:00+4nne566583 0.1 1031779
06:00+3n346394 0.0 1030661
09:00+3n557194 0.1 1031649
12:00+4nw556232 0.0 1030993
15:00+4wnw566459 0.0 1029902
18:00+5w797467 0.0 1027702
21:00+6w7107847 0.0 1027388
3 march, wed
wed300:00+6wnw69850 0.0 1026233
03:00+5nnw688911 0.0 1026291
06:00+4n68850 0.0 1026368
09:00+4nnw57820 0.0 1027393
12:00+5nw67830 0.0 1027388
15:00+6nw68810 0.0 1027362
18:00+6wnw57816 0.0 1026222
21:00+7wnw46816 0.0 1028106